Location: Wildlife_Club
(35.6000°N, 81.4330°W)
Time: 23:35:40
(UTC-04:00)

Amateur Radio Satellites - All Passes

Search period start: 28 April 2017 23:05
Search period end: 29 April 2017 23:05
Location: Wildlife_Club, 35.6000°N, 81.4330°W

Satellite Date Start Highest point End Downlink Frequencies (MHz)
Time Altitude Azimuth
LO-87 28 Apr 23:09:54 23:12:59 27° 72° (ENE) 23:16:05 145.935 - 145.965
UNISAT 6 28 Apr 23:13:23 23:17:36 52° 100° (E) 23:21:52 437.425
PRISM 28 Apr 23:33:14 23:37:16 51° 286° (WNW) 23:41:14 437.425
BEESAT 3 28 Apr 23:36:31 23:40:23 46° 245° (WSW) 23:44:10 437.485
BEESAT 2 28 Apr 23:40:38 23:44:40 64° 60° (ENE) 23:48:38 435.950
FO-29 28 Apr 23:56:01 00:01:18 83° 284° (WNW) 00:07:04 435.910
TIGRISAT 29 Apr 00:28:44 00:32:03 22° 290° (WNW) 00:35:25 435.000
ESTCUBE 1 29 Apr 00:30:47 00:35:11 55° 260° (W) 00:39:38 437.505/2401.250
POLYITAN 1 29 Apr 00:33:11 00:36:43 26° 97° (E) 00:40:14 437.675
VELOX 1 29 Apr 00:33:31 00:37:41 40° 72° (ENE) 00:41:52 145.980
QB50P2 29 Apr 00:39:41 00:43:32 34° 98° (E) 00:47:21 145.880/145.840
UKube-1 29 Apr 00:42:05 00:43:49 12° 65° (ENE) 00:45:33 .
LO-87 29 Apr 00:44:19 00:46:26 15° 266° (W) 00:48:32 145.935 - 145.965
AIST 2D 29 Apr 00:49:55 00:53:26 81° 285° (WNW) 00:56:59 435.315
UNISAT 6 29 Apr 00:52:14 00:53:50 12° 294° (WNW) 00:55:28 437.425
NANOSAT C BR1 29 Apr 00:58:57 01:03:01 48° 100° (E) 01:07:04 145.865
50 SAT 29 Apr 01:00:51 01:04:08 41° 74° (ENE) 01:07:28 437.505
DX 1 29 Apr 01:17:16 01:21:27 46° 73° (ENE) 01:25:40 434.975-435.025
SPROUT 29 Apr 01:17:26 01:21:40 65° 259° (W) 01:25:55 437.525
DUCHIFAT 1 29 Apr 01:27:19 01:31:29 82° 283° (WNW) 01:35:39 145.980
EO-79 29 Apr 01:28:19 01:32:28 64° 284° (WNW) 01:36:37 145.935-145.965
PCSat 29 Apr 01:43:08 01:47:54 33° 109° (ESE) 01:52:41 145.827
POLYITAN 1 29 Apr 02:09:07 02:12:20 22° 291° (WNW) 02:15:32 437.675
VELOX 1 29 Apr 02:11:35 02:14:15 16° 266° (W) 02:16:55 145.980
UKube-1 29 Apr 02:15:09 02:19:21 52° 259° (W) 02:23:36 .
QB50P2 29 Apr 02:16:19 02:19:01 17° 292° (WNW) 02:21:43 145.880/145.840
BUGSAT 1 29 Apr 02:19:09 02:23:07 65° 285° (WNW) 02:27:06 437.445
BEESAT 29 Apr 02:30:36 02:33:30 16° 66° (ENE) 02:36:25 436.000
NANOSAT C BR1 29 Apr 02:36:38 02:38:16 12° 294° (WNW) 02:39:54 145.865
Oscar 19 29 Apr 02:53:26 02:58:40 77° 103° (ESE) 03:03:50 437.125/150
DX 1 29 Apr 02:55:47 02:57:50 13° 267° (W) 02:59:53 434.975-435.025
ITUPSAT 1 29 Apr 03:11:07 03:15:35 42° 72° (ENE) 03:20:04 437.325
NO-84 29 Apr 03:14:28 03:17:21 87° 235° (SW) 03:20:10 435.350 FM
Gurwin Techsat 1B 29 Apr 03:15:14 03:20:34 71° 102° (ESE) 03:25:51 435.225
PCSat 29 Apr 03:26:29 03:31:14 30° 305° (NW) 03:36:00 145.827
MOZHAYETS 4 29 Apr 03:37:16 03:41:24 36° 72° (ENE) 03:45:35
AO-7 29 Apr 03:58:18 04:05:09 28° 97° (E) 04:11:57 .
BEESAT 29 Apr 04:06:19 04:10:51 46° 260° (W) 04:15:26 436.000
ITAMSAT 1 29 Apr 04:24:59 04:29:57 46° 100° (E) 04:34:54 435.822/435.867
YUBILEINY 29 Apr 04:25:07 04:33:20 49° 89° (E) 04:41:33 435.215
Oscar 19 29 Apr 04:35:26 04:37:15 12° 298° (WNW) 04:39:04 437.125/150
CUBESAT XI-V 29 Apr 04:35:32 04:39:22 26° 70° (ENE) 04:43:14 437.345
ITUPSAT 1 29 Apr 04:50:33 04:53:33 17° 266° (W) 04:56:34 437.325
Gurwin Techsat 1B 29 Apr 04:57:26 04:59:50 13° 298° (WNW) 05:02:14 435.225
KKS-1 29 Apr 05:06:50 05:11:15 62° 75° (ENE) 05:15:41 437.445
MOZHAYETS 4 29 Apr 05:15:37 05:18:39 18° 266° (W) 05:21:43
STARS 29 Apr 05:31:15 05:35:29 48° 73° (ENE) 05:39:43 437.465
RS-15 29 Apr 05:32:03 05:38:17 16° 97° (E) 05:44:35 29.354- 29.394
SO-50 29 Apr 05:43:14 05:47:16 30° 113° (ESE) 05:51:15 436.795
AO-7 29 Apr 05:50:07 05:58:12 58° 293° (WNW) 06:06:18 .
ITAMSAT 1 29 Apr 06:05:28 06:09:01 19° 295° (WNW) 06:12:34 435.822/435.867
CUBESAT XI-V 29 Apr 06:12:43 06:16:37 26° 264° (W) 06:20:33 437.345
DOVE 4 29 Apr 06:21:42 06:24:38 17° 92° (E) 06:27:28 437.250
YUBILEINY 29 Apr 06:22:46 06:30:17 32° 287° (WNW) 06:37:52 435.215
XW-2C 29 Apr 06:33:37 06:35:18 12° 93° (E) 06:36:59 145.795 - 145.815
LilacSat-2 29 Apr 06:35:22 06:37:28 14° 93° (E) 06:39:34 437.200
XW-2F 29 Apr 06:55:47 06:58:54 23° 96° (E) 07:01:59 145.980 - 146.000
NUDT-PHONESAT 29 Apr 06:59:07 07:01:57 20° 95° (E) 07:04:46 437.300
Tancredo 1 29 Apr 07:02:02 07:04:46 29° 132° (SE) 07:07:29 437.200
STARS 29 Apr 07:10:05 07:12:02 13° 267° (W) 07:13:59 437.465
M-CUBED/EXP-1 PRIME 29 Apr 07:15:10 07:19:07 28° 65° (ENE) 07:23:06 437.505
SO-50 29 Apr 07:23:46 07:27:40 26° 308° (NW) 07:31:33 436.795
CUTE-I 29 Apr 07:31:23 07:36:37 57° 101° (E) 07:41:49 437.470
RS-15 29 Apr 07:36:43 07:48:38 78° 115° (ESE) 08:00:59 29.354- 29.394
ISS 29 Apr 07:43:59 07:47:13 70° 138° (SE) 07:50:29 437.550
XW-2D 29 Apr 07:46:47 07:50:34 63° 283° (WNW) 07:54:21 145.860 - 145.880
AO-7 29 Apr 07:47:33 07:49:12 11° 312° (NW) 07:50:51 .
STRAND 1 29 Apr 07:52:45 07:57:47 65° 74° (ENE) 08:02:50 437.568
HO-68 29 Apr 07:53:47 07:59:28 25° 95° (E) 08:05:07 435.675
XW-2B 29 Apr 07:53:51 07:57:35 52° 284° (WNW) 08:01:18 145.730 - 145.750
KAITUO 1B 29 Apr 07:56:42 08:00:26 61° 284° (WNW) 08:04:11 145.475/437.950
DOVE 4 29 Apr 07:58:24 08:02:27 33° 289° (WNW) 08:06:18 437.250
XW-2A 29 Apr 07:59:26 08:01:21 14° 94° (E) 08:03:15 145.665 - 145.685
XW-2C 29 Apr 08:06:05 08:09:36 35° 286° (WNW) 08:13:06 145.795 - 145.815
LilacSat-2 29 Apr 08:08:21 08:11:48 32° 287° (WNW) 08:15:14 437.200
CUTE 1.7 + AOD 2 29 Apr 08:14:18 08:17:58 27° 96° (E) 08:21:37 437.475
CUBEBUG 2 29 Apr 08:14:48 08:15:58 11° 92° (E) 08:17:10 437.445
SEEDS 29 Apr 08:29:01 08:32:34 25° 96° (E) 08:36:05 437.485
XW-2F 29 Apr 08:30:06 08:32:51 19° 290° (WNW) 08:35:37 145.980 - 146.000
NUDT-PHONESAT 29 Apr 08:32:53 08:35:44 21° 289° (WNW) 08:38:35 437.300
Tancredo 1 29 Apr 08:38:09 08:40:40 22° 327° (NNW) 08:43:10 437.200
M-CUBED/EXP-1 PRIME 29 Apr 08:49:31 08:53:24 27° 260° (W) 08:57:22 437.505
CUTE-I 29 Apr 09:12:58 09:16:08 16° 296° (WNW) 09:19:18 437.470
ISS 29 Apr 09:22:07 09:24:02 15° 333° (NNW) 09:25:57 437.550
AAUSAT CUBESAT 2 29 Apr 09:27:53 09:32:02 60° 100° (E) 09:36:09 437.432
UWE-3 29 Apr 09:29:24 09:33:33 54° 100° (E) 09:37:46 435.000/436.395/437.385
XW-2A 29 Apr 09:31:22 09:34:03 23° 288° (WNW) 09:36:45 145.665 - 145.685
STRAND 1 29 Apr 09:35:25 09:37:21 12° 269° (W) 09:39:16 437.568
HO-68 29 Apr 09:40:28 09:47:27 55° 290° (WNW) 09:54:24 435.675
TIGRISAT 29 Apr 09:48:34 09:51:22 17° 68° (ENE) 09:54:07 435.000
CUBEBUG 2 29 Apr 09:48:46 09:52:48 49° 285° (WNW) 09:56:56 437.445
CUTE 1.7 + AOD 2 29 Apr 09:50:21 09:53:37 22° 290° (WNW) 09:56:53 437.475
RS-15 29 Apr 09:51:52 10:02:26 33° 319° (NW) 10:13:17 29.354- 29.394
O/OREOS (USA 219) 29 Apr 10:04:28 10:08:49 45° 105° (ESE) 10:13:13 437.305
SEEDS 29 Apr 10:04:45 10:08:05 23° 290° (WNW) 10:11:25 437.485
FO-29 29 Apr 10:05:46 10:11:03 30° 70° (ENE) 10:15:52 435.910
UNISAT 6 29 Apr 10:09:27 10:13:19 31° 72° (ENE) 10:17:08 437.425
ZACube-1 29 Apr 10:18:15 10:22:30 70° 283° (WNW) 10:26:49 437.345
PRISM 29 Apr 10:18:54 10:23:01 71° 77° (ENE) 10:27:11 437.425
AO-73 29 Apr 10:23:23 10:27:37 68° 284° (WNW) 10:31:56 145.935
PCSat 29 Apr 10:34:34 10:37:54 16° 49° (NE) 10:41:12 145.827
Oscar 11 29 Apr 10:35:29 10:39:47 60° 285° (WNW) 10:44:04 .
UWE-3 29 Apr 11:08:16 11:09:32 11° 294° (WNW) 11:10:48 435.000/436.395/437.385
OBJECT BX 29 Apr 11:18:25 11:22:06 87° 282° (WNW) 11:25:45 145.990 - 145.960
DELFI C3 29 Apr 11:20:49 11:24:46 61° 284° (WNW) 11:28:40 145.870
AIST 2D 29 Apr 11:22:00 11:24:37 20° 72° (ENE) 11:27:15 435.315
TIGRISAT 29 Apr 11:23:43 11:27:45 36° 262° (W) 11:31:44 435.000
POLYITAN 1 29 Apr 11:24:05 11:26:17 14° 67° (ENE) 11:28:30 437.675
AO-85 29 Apr 11:24:32 11:27:03 15° 110° (ESE) 11:29:29 145.980
QB50P2 29 Apr 11:30:06 11:32:59 18° 68° (ENE) 11:35:52 145.880/145.840
O/OREOS (USA 219) 29 Apr 11:45:37 11:48:27 16° 301° (WNW) 11:51:19 437.305
UNISAT 6 29 Apr 11:46:59 11:50:03 18° 265° (W) 11:53:05 437.425
NANOSAT C BR1 29 Apr 11:48:24 11:51:49 24° 70° (ENE) 11:55:13 145.865
FO-29 29 Apr 11:50:18 11:56:00 34° 261° (W) 12:01:10 435.910
LO-87 29 Apr 12:12:31 12:15:59 49° 99° (E) 12:19:25 145.935 - 145.965
RS-15 29 Apr 12:14:27 12:20:44 15° 353° (N) 12:27:01 29.354- 29.394
DUCHIFAT 1 29 Apr 12:15:51 12:19:51 46° 74° (ENE) 12:23:52 145.980
PCSat 29 Apr 12:16:25 12:21:50 71° 246° (WSW) 12:27:12 145.827
EO-79 29 Apr 12:17:18 12:21:27 61° 75° (ENE) 12:25:36 145.935-145.965
ESTCUBE 1 29 Apr 12:26:10 12:30:25 38° 98° (E) 12:34:37 437.505/2401.250
AIST 2D 29 Apr 12:55:23 12:57:44 17° 265° (W) 13:00:06 435.315
POLYITAN 1 29 Apr 12:57:42 13:01:41 41° 261° (W) 13:05:41 437.675
AO-85 29 Apr 13:03:02 13:07:08 41° 303° (WNW) 13:11:01 145.980
QB50P2 29 Apr 13:04:45 13:08:31 31° 263° (W) 13:12:17 145.880/145.840
BUGSAT 1 29 Apr 13:05:25 13:09:28 54° 74° (ENE) 13:13:28 437.445
SPROUT 29 Apr 13:06:27 13:09:58 25° 96° (E) 13:13:28 437.525
BEESAT 3 29 Apr 13:23:02 13:26:51 55° 116° (ESE) 13:30:45 437.485
NANOSAT C BR1 29 Apr 13:24:05 13:27:25 23° 264° (W) 13:30:45 145.865
BEESAT 2 29 Apr 13:29:44 13:32:48 22° 111° (ESE) 13:35:54 435.950
Tancredo 1 29 Apr 13:30:31 13:32:04 13° 27° (NNE) 13:33:37 437.200
DUCHIFAT 1 29 Apr 13:54:13 13:55:44 12° 268° (W) 13:57:14 145.980
50 SAT 29 Apr 13:59:39 14:03:08 70° 101° (ESE) 14:06:34 437.505
VELOX 1 29 Apr 14:02:24 14:06:47 65° 285° (WNW) 14:11:07 145.980
ESTCUBE 1 29 Apr 14:03:50 14:06:52 18° 293° (WNW) 14:09:54 437.505/2401.250
UKube-1 29 Apr 14:05:13 14:09:01 30° 98° (E) 14:12:48 .
Oscar 19 29 Apr 14:07:09 14:12:18 82° 74° (ENE) 14:17:30 437.125/150
ISS 29 Apr 14:14:36 14:17:18 23° 33° (NNE) 14:20:00 437.550
SO-50 29 Apr 14:18:07 14:20:29 14° 46° (NE) 14:22:49 436.795
RS-15 29 Apr 14:31:03 14:40:12 23° 30° (NNE) 14:49:04 29.354- 29.394
Gurwin Techsat 1B 29 Apr 14:33:15 14:38:34 84° 76° (ENE) 14:43:54 435.225
YUBILEINY 29 Apr 14:39:57 14:46:01 20° 68° (ENE) 14:52:04 435.215
SPROUT 29 Apr 14:42:25 14:45:43 22° 290° (WNW) 14:49:02 437.525
DX 1 29 Apr 14:44:09 14:48:27 60° 286° (WNW) 14:52:42 434.975-435.025
AO-7 29 Apr 14:54:25 15:01:21 31° 60° (ENE) 15:08:18 .
BEESAT 3 29 Apr 15:03:01 15:04:47 13° 313° (NW) 15:06:34 437.485
Tancredo 1 29 Apr 15:05:12 15:08:17 74° 223° (SW) 15:11:22 437.200
BEESAT 2 29 Apr 15:07:03 15:10:24 26° 307° (NW) 15:13:49 435.950
ITUPSAT 1 29 Apr 15:16:03 15:18:27 14° 93° (E) 15:20:51 437.325
MOZHAYETS 4 29 Apr 15:37:40 15:38:42 11° 91° (E) 15:39:43
ITAMSAT 1 29 Apr 15:39:55 15:44:56 53° 73° (ENE) 15:49:59 435.822/435.867
UKube-1 29 Apr 15:41:41 15:44:49 20° 292° (WNW) 15:47:56 .
JUGNU 29 Apr 15:48:11 15:48:43 10° 165° (SSE) 15:49:15 437.505
ISS 29 Apr 15:50:54 15:53:48 30° 228° (SW) 15:56:41 437.550
SO-50 29 Apr 15:56:53 16:01:21 65° 243° (WSW) 16:05:48 436.795
BEESAT 29 Apr 16:09:01 16:13:43 55° 101° (E) 16:18:23 436.000
YUBILEINY 29 Apr 16:34:54 16:43:40 77° 266° (W) 16:52:27 435.215
RS-15 29 Apr 16:43:15 16:55:29 70° 57° (ENE) 17:07:03 29.354- 29.394
AO-7 29 Apr 16:45:36 16:53:40 55° 257° (WSW) 17:01:46 .
ITUPSAT 1 29 Apr 16:51:53 16:56:31 52° 287° (WNW) 17:01:10 437.325
KKS-1 29 Apr 17:02:10 17:04:37 15° 93° (E) 17:07:06 437.445
MOZHAYETS 4 29 Apr 17:11:37 17:16:11 61° 285° (WNW) 17:20:44
ITAMSAT 1 29 Apr 17:21:39 17:24:39 16° 267° (W) 17:27:42 435.822/435.867
DOVE 4 29 Apr 17:23:43 17:27:02 17° 67° (ENE) 17:30:19 437.250
STARS 29 Apr 17:26:23 17:27:07 10° 92° (E) 17:27:51 437.465
JUGNU 29 Apr 17:33:28 17:36:56 16° 175° (S) 17:40:24 437.505
BEESAT 29 Apr 17:48:32 17:50:59 14° 295° (WNW) 17:53:25 436.000
CUBESAT XI-V 29 Apr 18:11:09 18:15:53 86° 286° (WNW) 18:20:36 437.345
HO-68 29 Apr 18:22:07 18:25:29 14° 56° (NE) 18:28:51 435.675
XW-2D 29 Apr 18:25:03 18:28:28 35° 74° (ENE) 18:31:55 145.860 - 145.880
NO-84 29 Apr 18:28:40 18:32:26 42° 129° (SE) 18:35:54 435.350 FM
XW-2B 29 Apr 18:31:57 18:35:29 42° 75° (ENE) 18:39:03 145.730 - 145.750
KAITUO 1B 29 Apr 18:33:46 18:37:07 34° 74° (ENE) 18:40:31 145.475/437.950
YUBILEINY 29 Apr 18:36:21 18:38:53 11° 284° (WNW) 18:41:24 435.215
KKS-1 29 Apr 18:37:11 18:41:20 42° 288° (WNW) 18:45:29 437.445
XW-2C 29 Apr 18:43:51 18:47:33 65° 76° (ENE) 18:51:16 145.795 - 145.815
LilacSat-2 29 Apr 18:46:36 18:50:20 75° 77° (ENE) 18:54:06 437.200
CUTE-I 29 Apr 18:50:07 18:55:26 70° 74° (ENE) 19:00:45 437.470
RS-15 29 Apr 18:57:09 19:06:49 30° 257° (WSW) 19:16:10 29.354- 29.394
DOVE 4 29 Apr 18:59:04 19:04:15 54° 260° (W) 19:09:21 437.250
STARS 29 Apr 18:59:29 19:03:45 56° 286° (WNW) 19:07:59 437.465
SRMSAT 29 Apr 19:03:03 19:05:44 13° 169° (S) 19:08:25 437.500
CUTE 1.7 + AOD 2 29 Apr 19:05:24 19:07:32 14° 67° (ENE) 19:09:41 437.475
XW-2F 29 Apr 19:06:52 19:10:32 62° 260° (W) 19:14:14 145.980 - 146.000
NUDT-PHONESAT 29 Apr 19:08:12 19:11:50 75° 259° (WSW) 19:15:30 437.300
SEEDS 29 Apr 19:19:23 19:21:09 12° 66° (ENE) 19:22:56 437.485
JUGNU 29 Apr 19:21:45 19:25:10 16° 186° (S) 19:28:37 437.505
XW-2A 29 Apr 19:58:56 20:02:14 61° 76° (ENE) 20:05:32 145.665 - 145.685
XW-2D 29 Apr 20:01:25 20:02:47 12° 267° (W) 20:04:09 145.860 - 145.880
HO-68 29 Apr 20:04:57 20:12:06 83° 73° (ENE) 20:19:18 435.675
STRAND 1 29 Apr 20:06:40 20:11:01 28° 97° (E) 20:15:21 437.568
NO-84 29 Apr 20:07:18 20:10:04 19° 322° (NW) 20:12:41 435.350 FM
KAITUO 1B 29 Apr 20:09:55 20:11:15 12° 267° (W) 20:12:36 145.475/437.950
AAUSAT CUBESAT 2 29 Apr 20:15:16 20:18:43 26° 71° (ENE) 20:22:10 437.432
O/OREOS (USA 219) 29 Apr 20:17:20 20:21:48 53° 67° (ENE) 20:26:13 437.305
UWE-3 29 Apr 20:23:45 20:27:25 29° 72° (ENE) 20:31:02 435.000/436.395/437.385
M-CUBED/EXP-1 PRIME 29 Apr 20:31:27 20:34:47 26° 100° (E) 20:37:55 437.505
CUTE-I 29 Apr 20:33:57 20:35:54 12° 269° (W) 20:37:52 437.470
CUTE 1.7 + AOD 2 29 Apr 20:38:57 20:42:57 42° 261° (W) 20:47:00 437.475
CUBEBUG 2 29 Apr 20:43:23 20:47:45 90° 31° (NNE) 20:52:00 437.445
SRMSAT 29 Apr 20:50:22 20:54:09 17° 179° (S) 20:57:56 437.500
SEEDS 29 Apr 20:52:21 20:56:23 47° 261° (W) 21:00:27 437.485
ZACube-1 29 Apr 21:10:54 21:15:01 59° 75° (ENE) 21:19:05 437.345
AO-73 29 Apr 21:15:42 21:19:48 60° 76° (ENE) 21:23:53 145.935
Oscar 11 29 Apr 21:26:49 21:31:04 68° 76° (ENE) 21:35:22 .
AO-85 29 Apr 21:36:19 21:40:18 63° 60° (ENE) 21:44:29 145.980
BEESAT 3 29 Apr 21:43:38 21:45:54 14° 48° (NE) 21:48:10 437.485
STRAND 1 29 Apr 21:45:43 21:50:06 29° 291° (WNW) 21:54:28 437.568
AAUSAT CUBESAT 2 29 Apr 21:50:58 21:54:06 21° 265° (W) 21:57:15 437.432
OBJECT BX 29 Apr 21:53:42 21:56:38 24° 71° (ENE) 21:59:35 145.990 - 145.960
HO-68 29 Apr 21:56:46 22:00:30 15° 269° (W) 22:04:15 435.675
O/OREOS (USA 219) 29 Apr 21:58:58 22:00:39 12° 262° (W) 22:02:19 437.305
UWE-3 29 Apr 22:00:51 22:03:51 19° 265° (W) 22:06:51 435.000/436.395/437.385
DELFI C3 29 Apr 22:02:52 22:06:41 46° 74° (ENE) 22:10:31 145.870
PRISM 29 Apr 22:05:16 22:06:50 12° 93° (E) 22:08:23 437.425
M-CUBED/EXP-1 PRIME 29 Apr 22:06:09 22:09:01 19° 297° (WNW) 22:11:45 437.505
SRMSAT 29 Apr 22:39:27 22:42:34 14° 189° (S) 22:45:42 437.500
LO-87 29 Apr 22:47:08 22:48:59 14° 69° (ENE) 22:50:50 145.935 - 145.965
